Regional Weather Roundup
Issued by NWS Northern Indiana

Home | Current Version | Previous Version | Text Only | Print | Product List | Glossary Off
Versions: 1 2 3 4 5 6 7 8 9 10 11 12 13 14 15 16 17 18 19 20 21 22 23 24 25 26 27 28 29 30 31 32 33 34 35 36 37 38 39 40 41 42 43 44 45 46 47 48 49 50

000
ASUS43 KIWX 272010
RWRIWX

KIWX WEATHER ROUNDUP
NATIONAL WEATHER SERVICE NORTHERN INDIANA
400 PM EDT TUE JUN 27 2017

NOTE: "FAIR" INDICATES FEW OR NO CLOUDS BELOW 12,000 FEET WITH NO
SIGNIFICANT WEATHER AND/OR OBSTRUCTIONS TO VISIBILITY.

* THESE STATIONS ARE NOT UNDER NWS QUALITY CONTROL. THEY ALSO MAY NOT
  REPORT WEATHER SUCH AS PRECIPITATION OR FOG.

INZ001>027-272100-
NORTHERN INDIANA

CITY           SKY/WX    TMP DP  RH WIND       PRES   REMARKS
GARY*          MOSUNNY   75  43  31 NE12      30.10F
VALPARAISO     MOSUNNY   74  45  35 VRB5      30.10F
MICHIGAN CITY* SUNNY     72  45  37 NW8       30.11F
LAPORTE*       SUNNY     72  41  33 NW6       30.11F
KNOX*          MOSUNNY   72  34  25 NW7       30.10S
SOUTH BEND     SUNNY     72  44  36 NW15      30.11S
ELKHART*       MOSUNNY   72  43  35 NW10      30.10S
GOSHEN         MOSUNNY   71  44  37 W12       30.09F
MONTICELLO*    MOSUNNY   73  47  39 W8        30.11F
LOGANSPORT*    MOSUNNY   70  50  49 SW5       30.12F
ROCHESTER*     MOSUNNY   73  46  38 W9        30.10F
WARSAW*        MOSUNNY   70  46  43 W8G22     30.10F
AUBURN*        PTSUNNY   70  45  40 SW6       30.10F
FORT WAYNE     PTSUNNY   71  47  42 W13       30.10F
HUNTINGTON*    MOSUNNY   69  46  42 W6        30.10F
PERU/GRISSOM   PTSUNNY   70  49  46 W3        30.10F
MARION*        MOSUNNY   70  46  43 NW7       30.12F

$$
INZ028>050-272100-
CENTRAL INDIANA

CITY           SKY/WX    TMP DP  RH WIND       PRES   REMARKS
LAFAYETTE      MOSUNNY   72  51  47 W10       30.10F
KOKOMO*        MOSUNNY   72  48  42 VRB7      30.12F
MUNCIE*        MOSUNNY   73  46  38 N5        30.12F
INDIANAPOLIS   MOSUNNY   72  46  39 CALM      30.12F

$$
MIZ043>046-050>051-056>058-064>065-071>073-077>080-272100-
SOUTHWEST LOWER MICHIGAN

CITY           SKY/WX    TMP DP  RH WIND       PRES   REMARKS
BATTLE CREEK   PTSUNNY   74  44  34 W17       30.08F
BENTON HARBOR  SUNNY     71  43  36 VRB6      30.11S
COLDWATER*     CLOUDY    72  42  33 W7G16     30.08F
HILLSDALE*     PTSUNNY   70  45  40 W10G17    30.07F
HOLLAND        SUNNY     70  51  51 W14       30.10S
GRAND RAPIDS   MOSUNNY   71  48  43 W17G23    30.06F
KALAMAZOO      MOSUNNY   71  41  33 NW12G17   30.08F
STURGIS*       PTSUNNY   69  45  41 NW8       30.08F
THREE RIVERS*  FAIR      71  44  38 NW7       30.09S

$$
OHZ001>008-015>018-024>025-272100-
NORTHWEST OHIO

CITY           SKY/WX    TMP DP  RH WIND       PRES   REMARKS
WAUSEON*       CLOUDY    70  45  40 W7        30.07F
DEFIANCE       PTSUNNY   69  45  41 W8        30.08F
FINDLAY        MOSUNNY   72  45  37 W8        30.09F
TOLEDO EXPRESS MOSUNNY   70  44  39 SW10      30.07F
TOLEDO METCALF PTSUNNY   70  44  39 W6        30.08F
LIMA           PTSUNNY   68  44  42 W6        30.11F

$$
AND FOR LAKE MICHIGAN COASTAL AND OPEN LAKE BUOY OBSERVATIONS

STATION/POSITION TEMP    WIND        PRES    VSBY  WAVE
                 AIR SEA DIR/SP/G                  HT/PER
                 (F)     (DEG/KT/KT) (MB)    (MI)  (FT/S)
CALUMET HARBOR    67      70/  7/ 11 1018.5F
MICHIGAN CITY     70     360/  2/  2   N/A
BURNS HARBOR      68      60/  8/  8 1019.6F
SOUTH LAKE BUOY   62 62  180/ 10/ 10 1018.9F         1/ 5
4 MI NW BRIDGMAN  66 70  270/  4/  6 1019.6          2/ 3
MICHIGAN CITY     66 68  100/  2/  4   N/A           1/ 4

$$
&&




USA.gov is the U.S. government's official web portal to all federal, state and local government web resources and services.